STARLINK-1247 (45236 NORAD) Tracking and Keplerian Element Data

This shows tracking and keplerian element data for the satellite.

Feedback or suggestion? Click here.




ElementValue
Catalog45236
NameSTARLINK-1247
Epoch Orbit176
Epoch Day193.91667824
Epoch Year2020
RAAN284.7123
Inclination52.9995
Eccentricity0.0001165
Argument of Perigee94.7393
Mean Anonmoly334.3745
Mean Motion15.05616793
Decay Rate-0.00035868
L11 45236U 20012BL 20193.91667824 -.00035868 00000-0 -24526-2 0 9996
L22 45236 52.9995 284.7123 0001165 94.7393 334.3745 15.05616793 1762

Live tracking and technical data element details for STARLINK-1247 (NORAD 45236). STARLINK-1247 can be tracked NOW for your location showing map with azimuth and elevation plus other details from your city location.

Track the satellite on the map from your city or location and see movement details for azimuth, elevation, latitude, longitude, range, height, and movement on the map or in text.







IsCatalogInMostPopularTable: catalog: 45236, numindb: 37
Update: records affected: 1



GetName: 45236 STARLINK-1247

Hit Count: updated at: Mon, 13 Jul 2020 06:08:56 GMT